• In Uzbekistan
  • List of Countries
  • For 7 days
  • Water Temperature
  • Satellite Maps
  • Weather Map
  • Weather Widgets
  • user-avatar
    Login

    Hourly Weather Sherpur

    Today, 20 September, Wednesday

    Time Temperature Precipitation Wind Pressure Humidity
    00:00 +18°C° 0 mm 2 mps 609 mmHg 27%
    01:00 +18°C° 0 mm 2 mps 609 mmHg 28%
    02:00 +17°C° 0 mm 2 mps 609 mmHg 30%
    03:00 +17°C° 0 mm 2 mps 609 mmHg 30%
    04:00 +16°C° 0 mm 2 mps 609 mmHg 31%
    05:00 +16°C° 0 mm 2 mps 609 mmHg 30%
    06:00 +17°C° 0 mm 2 mps 609 mmHg 28%
    07:00 +19°C° 0 mm 2 mps 610 mmHg 25%
    08:00 +21°C° 0 mm 1 mps 610 mmHg 23%
    09:00 +22°C° 0 mm 1 mps 611 mmHg 20%
    10:00 +23°C° 0 mm 1 mps 611 mmHg 17%
    11:00 +25°C° 0 mm 2 mps 611 mmHg 13%
    12:00 +25°C° 0 mm 2 mps 611 mmHg 12%
    13:00 +26°C° 0 mm 2 mps 611 mmHg 11%
    14:00 +27°C° 0 mm 2 mps 611 mmHg 10%
    15:00 +26°C° 0 mm 2 mps 611 mmHg 10%
    16:00 +26°C° 0 mm 3 mps 611 mmHg 10%
    17:00 +26°C° 0 mm 3 mps 610 mmHg 10%
    18:00 +25°C° 0 mm 3 mps 610 mmHg 12%
    19:00 +23°C° 0 mm 2 mps 610 mmHg 14%
    20:00 +20°C° 0 mm 2 mps 609 mmHg 16%
    21:00 +20°C° 0 mm 2 mps 609 mmHg 19%
    22:00 +19°C° 0 mm 2 mps 609 mmHg 22%
    23:00 +18°C° 0 mm 2 mps 609 mmHg 24%

    Tomorrow, 21 September, Thursday

    Time Temperature Precipitation Wind Pressure Humidity
    00:00 +17°C° 0 mm 2 mps 608 mmHg 26%
    01:00 +17°C° 0 mm 2 mps 608 mmHg 29%
    02:00 +16°C° 0 mm 1 mps 608 mmHg 31%
    03:00 +16°C° 0 mm 1 mps 608 mmHg 32%
    04:00 +15°C° 0 mm 1 mps 608 mmHg 33%
    05:00 +15°C° 0 mm 1 mps 608 mmHg 34%
    06:00 +16°C° 0 mm 1 mps 608 mmHg 31%
    07:00 +18°C° 0 mm 1 mps 609 mmHg 29%
    08:00 +20°C° 0 mm 1 mps 610 mmHg 26%
    09:00 +21°C° 0 mm 1 mps 610 mmHg 23%
    10:00 +22°C° 0 mm 1 mps 610 mmHg 20%
    11:00 +23°C° 0 mm 1 mps 611 mmHg 17%
    12:00 +24°C° 0 mm 2 mps 611 mmHg 15%
    13:00 +25°C° 0 mm 2 mps 610 mmHg 14%
    14:00 +26°C° 0 mm 2 mps 610 mmHg 13%
    15:00 +25°C° 0 mm 2 mps 610 mmHg 13%
    16:00 +25°C° 0 mm 2 mps 610 mmHg 13%
    17:00 +25°C° 0 mm 3 mps 610 mmHg 13%
    18:00 +24°C° 0 mm 2 mps 610 mmHg 15%
    19:00 +21°C° 0 mm 2 mps 610 mmHg 18%
    20:00 +20°C° 0 mm 2 mps 609 mmHg 20%
    21:00 +19°C° 0 mm 2 mps 609 mmHg 23%
    22:00 +18°C° 0 mm 2 mps 609 mmHg 25%
    23:00 +18°C° 0 mm 1 mps 609 mmHg 27%

    Day after tomorrow, 22 September, Friday

    Time Temperature Precipitation Wind Pressure Humidity
    00:00 +18°C° 0 mm 1 mps 609 mmHg 29%
    01:00 +16°C° 0 mm 1 mps 608 mmHg 31%
    02:00 +16°C° 0 mm 1 mps 608 mmHg 32%
    03:00 +15°C° 0 mm 1 mps 608 mmHg 33%
    04:00 +15°C° 0 mm 1 mps 608 mmHg 34%
    05:00 +15°C° 0 mm 1 mps 608 mmHg 35%
    06:00 +16°C° 0 mm 1 mps 609 mmHg 31%
    07:00 +18°C° 0 mm 1 mps 609 mmHg 28%
    08:00 +19°C° 0 mm 1 mps 610 mmHg 25%
    09:00 +21°C° 0 mm 1 mps 611 mmHg 22%
    10:00 +22°C° 0 mm 1 mps 611 mmHg 19%
    11:00 +23°C° 0 mm 1 mps 611 mmHg 16%
    12:00 +24°C° 0 mm 2 mps 611 mmHg 15%
    13:00 +25°C° 0 mm 2 mps 611 mmHg 13%
    14:00 +26°C° 0 mm 2 mps 611 mmHg 12%
    15:00 +26°C° 0 mm 2 mps 611 mmHg 12%
    16:00 +25°C° 0 mm 2 mps 611 mmHg 12%
    17:00 +25°C° 0 mm 2 mps 611 mmHg 12%
    18:00 +24°C° 0 mm 2 mps 610 mmHg 14%
    19:00 +21°C° 0 mm 2 mps 610 mmHg 16%
    20:00 +20°C° 0 mm 2 mps 610 mmHg 19%
    21:00 +19°C° 0 mm 2 mps 610 mmHg 21%
    22:00 +19°C° 0 mm 1 mps 610 mmHg 23%
    23:00 +19°C° 0 mm 1 mps 610 mmHg 25%

    23 September, Saturday

    Time Temperature Precipitation Wind Pressure Humidity
    00:00 +18°C° 0 mm 1 mps 609 mmHg 27%
    01:00 +16°C° 0 mm 1 mps 609 mmHg 28%
    02:00 +16°C° 0 mm 1 mps 609 mmHg 30%
    03:00 +15°C° 0 mm 1 mps 609 mmHg 30%
    04:00 +15°C° 0 mm 1 mps 609 mmHg 31%
    05:00 +15°C° 0 mm 1 mps 609 mmHg 32%
    06:00 +16°C° 0 mm 1 mps 610 mmHg 28%
    07:00 +18°C° 0 mm 1 mps 610 mmHg 25%
    08:00 +20°C° 0 mm 1 mps 611 mmHg 22%
    09:00 +21°C° 0 mm 1 mps 612 mmHg 20%
    10:00 +23°C° 0 mm 1 mps 612 mmHg 17%
    11:00 +24°C° 0 mm 1 mps 613 mmHg 15%
    12:00 +25°C° 0 mm 1 mps 613 mmHg 14%
    13:00 +26°C° 0 mm 2 mps 613 mmHg 13%
    14:00 +26°C° 0 mm 2 mps 612 mmHg 12%
    15:00 +26°C° 0 mm 2 mps 612 mmHg 12%
    16:00 +26°C° 0 mm 2 mps 612 mmHg 12%
    17:00 +26°C° 0 mm 2 mps 612 mmHg 12%
    18:00 +24°C° 0 mm 2 mps 612 mmHg 15%
    19:00 +23°C° 0 mm 2 mps 612 mmHg 17%
    20:00 +20°C° 0 mm 2 mps 612 mmHg 19%
    21:00 +20°C° 0 mm 2 mps 611 mmHg 21%
    22:00 +20°C° 0 mm 1 mps 611 mmHg 23%
    23:00 +19°C° 0 mm 1 mps 611 mmHg 24%

    24 September, Sunday

    Time Temperature Precipitation Wind Pressure Humidity
    00:00 +19°C° 0 mm 1 mps 611 mmHg 25%
    01:00 +18°C° 0 mm 1 mps 610 mmHg 26%
    02:00 +16°C° 0 mm 1 mps 610 mmHg 26%
    03:00 +16°C° 0 mm 2 mps 610 mmHg 27%
    04:00 +16°C° 0 mm 2 mps 610 mmHg 27%
    05:00 +15°C° 0 mm 2 mps 609 mmHg 27%
    06:00 +17°C° 0 mm 2 mps 610 mmHg 24%
    07:00 +18°C° 0 mm 2 mps 611 mmHg 22%
    08:00 +19°C° 0 mm 2 mps 612 mmHg 20%
    09:00 +22°C° 0 mm 1 mps 612 mmHg 18%
    10:00 +23°C° 0 mm 1 mps 613 mmHg 16%
    11:00 +24°C° 0 mm 1 mps 613 mmHg 14%
    12:00 +25°C° 0 mm 2 mps 613 mmHg 13%
    13:00 +26°C° 0 mm 2 mps 612 mmHg 12%
    14:00 +27°C° 0 mm 2 mps 612 mmHg 12%
    15:00 +27°C° 0 mm 2 mps 612 mmHg 12%
    16:00 +27°C° 0 mm 3 mps 612 mmHg 12%
    17:00 +26°C° 0 mm 3 mps 612 mmHg 12%
    18:00 +25°C° 0 mm 3 mps 612 mmHg 14%
    19:00 +23°C° 0 mm 2 mps 612 mmHg 16%
    20:00 +20°C° 0 mm 2 mps 611 mmHg 19%
    21:00 +20°C° 0 mm 2 mps 611 mmHg 20%
    22:00 +19°C° 0 mm 2 mps 611 mmHg 21%
    23:00 +18°C° 0 mm 2 mps 610 mmHg 22%

    25 September, Monday

    Time Temperature Precipitation Wind Pressure Humidity
    00:00 +17°C° 0 mm 2 mps 610 mmHg 23%
    01:00 +17°C° 0 mm 2 mps 610 mmHg 24%
    02:00 +16°C° 0 mm 2 mps 609 mmHg 25%
    03:00 +16°C° 0 mm 2 mps 609 mmHg 25%
    04:00 +15°C° 0 mm 2 mps 609 mmHg 26%
    05:00 +15°C° 0 mm 2 mps 609 mmHg 26%
    06:00 +16°C° 0 mm 2 mps 610 mmHg 25%
    07:00 +17°C° 0 mm 2 mps 610 mmHg 23%
    08:00 +18°C° 0 mm 2 mps 611 mmHg 21%
    09:00 +20°C° 0 mm 3 mps 612 mmHg 19%
    10:00 +21°C° 0 mm 3 mps 612 mmHg 16%
    11:00 +24°C° 0 mm 3 mps 612 mmHg 14%
    12:00 +25°C° 0 mm 3 mps 612 mmHg 13%
    13:00 +25°C° 0 mm 3 mps 612 mmHg 12%
    14:00 +26°C° 0 mm 4 mps 612 mmHg 10%
    15:00 +26°C° 0 mm 4 mps 612 mmHg 11%
    16:00 +25°C° 0 mm 4 mps 612 mmHg 11%
    17:00 +25°C° 0 mm 4 mps 611 mmHg 11%
    18:00 +22°C° 0 mm 4 mps 611 mmHg 14%
    19:00 +21°C° 0 mm 3 mps 611 mmHg 16%
    20:00 +19°C° 0 mm 3 mps 611 mmHg 18%
    21:00 +18°C° 0 mm 3 mps 611 mmHg 19%
    22:00 +17°C° 0 mm 3 mps 610 mmHg 20%
    23:00 +17°C° 0 mm 2 mps 610 mmHg 22%
    Show more